WAT55 YPAD-YWHA

Flight info

Callsign WAT55
Flight time 0h 40m
Altitude 20000
Route AD W238 RUKNA W142 WHA
Aircraft PC12/L-SDFGRWY/S

Departure

Time 2026-04-20 05:54
Airport Adelaide International Airport (YPAD)

Arrival

Time 2026-04-20 06:34
Airport Whyalla Airport (YWHA)
Time Latitude Longitude Altitude Speed Heading
2026-04-20 05:49 -34.93785 138.54234 16 ft 0 kts 46°
2026-04-20 05:52 -34.93780 138.54248 16 ft 7 kts 87°
2026-04-20 05:52 -34.93768 138.54215 16 ft 15 kts 226°
2026-04-20 05:52 -34.93837 138.54144 15 ft 13 kts 209°
2026-04-20 05:52 -34.93929 138.54175 16 ft 18 kts 138°
2026-04-20 05:53 -34.93995 138.54244 17 ft 15 kts 137°
2026-04-20 05:53 -34.94101 138.54269 18 ft 19 kts 220°
2026-04-20 05:53 -34.94236 138.54077 17 ft 52 kts 230°
2026-04-20 05:53 -34.94568 138.53587 12 ft 98 kts 229°
2026-04-20 05:54 -34.95063 138.52915 266 ft 110 kts 227°
2026-04-20 05:54 -34.95552 138.52261 796 ft 99 kts 229°
2026-04-20 05:54 -34.95977 138.51591 1242 ft 104 kts 233°
2026-04-20 05:54 -34.96493 138.50831 1542 ft 125 kts 227°
2026-04-20 05:55 -34.97099 138.50009 2000 ft 132 kts 227°
2026-04-20 05:55 -34.97707 138.49177 2553 ft 132 kts 228°
2026-04-20 05:55 -34.98191 138.48232 3099 ft 135 kts 259°
2026-04-20 05:55 -34.98061 138.47105 3698 ft 137 kts 302°
2026-04-20 05:56 -34.97546 138.46138 4334 ft 136 kts 305°
2026-04-20 05:56 -34.96978 138.45221 5002 ft 135 kts 323°
2026-04-20 05:56 -34.96093 138.44912 5677 ft 138 kts
2026-04-20 05:56 -34.95189 138.45341 6337 ft 142 kts 25°
2026-04-20 05:57 -34.94308 138.45900 6964 ft 143 kts 17°
2026-04-20 05:57 -34.93351 138.46223 7587 ft 142 kts
2026-04-20 05:57 -34.92366 138.46297 8228 ft 142 kts 355°
2026-04-20 05:57 -34.91383 138.46212 8880 ft 142 kts 351°
2026-04-20 05:58 -34.90400 138.46047 9547 ft 143 kts 348°
2026-04-20 05:58 -34.89419 138.45845 10221 ft 144 kts 346°
2026-04-20 05:58 -34.88429 138.45622 10834 ft 145 kts 348°
2026-04-20 05:58 -34.87429 138.45390 11461 ft 147 kts 348°
2026-04-20 05:59 -34.86424 138.45155 12098 ft 148 kts 346°
2026-04-20 05:59 -34.85413 138.44915 12743 ft 149 kts 347°
2026-04-20 05:59 -34.84392 138.44671 13397 ft 150 kts 347°
2026-04-20 05:59 -34.83619 138.44484 13884 ft 151 kts 348°
2026-04-20 06:00 -34.82577 138.44235 14471 ft 154 kts 349°
2026-04-20 06:00 -34.81519 138.43982 15037 ft 156 kts 348°
2026-04-20 06:00 -34.80455 138.43729 15554 ft 159 kts 348°
2026-04-20 06:00 -34.79367 138.43463 16069 ft 160 kts 346°
2026-04-20 06:01 -34.78291 138.43017 16454 ft 171 kts 332°
2026-04-20 06:01 -34.77302 138.42602 16975 ft 167 kts 348°
2026-04-20 06:01 -34.76144 138.42411 17490 ft 170 kts 352°
2026-04-20 06:01 -34.74966 138.42246 18031 ft 170 kts 352°
2026-04-20 06:02 -34.73784 138.42039 18524 ft 174 kts 349°
2026-04-20 06:02 -34.72595 138.41683 18934 ft 177 kts 336°
2026-04-20 06:02 -34.71622 138.40807 19329 ft 178 kts 298°
2026-04-20 06:02 -34.71088 138.39440 19660 ft 181 kts 304°
2026-04-20 06:03 -34.70033 138.38650 20139 ft 186 kts 350°
2026-04-20 06:03 -34.68747 138.38919 20478 ft 196 kts 19°
2026-04-20 06:03 -34.67394 138.39461 20533 ft 217 kts 12°
2026-04-20 06:03 -34.65819 138.39700 20439 ft 238 kts 359°
2026-04-20 06:04 -34.64106 138.39595 20344 ft 254 kts 352°
2026-04-20 06:04 -34.62312 138.39288 20283 ft 265 kts 348°
2026-04-20 06:04 -34.60478 138.38896 20270 ft 271 kts 348°
2026-04-20 06:04 -34.58610 138.38470 20261 ft 275 kts 348°
2026-04-20 06:05 -34.56750 138.38035 20259 ft 277 kts 348°
2026-04-20 06:05 -34.54824 138.37582 20256 ft 279 kts 347°
2026-04-20 06:05 -34.52941 138.37137 20255 ft 280 kts 347°
2026-04-20 06:05 -34.51027 138.36683 20245 ft 281 kts 347°
2026-04-20 06:06 -34.49109 138.36228 20249 ft 281 kts 348°
2026-04-20 06:06 -34.47184 138.35771 20249 ft 282 kts 347°
2026-04-20 06:06 -34.45263 138.35285 20251 ft 282 kts 345°
2026-04-20 06:06 -34.43372 138.34656 20252 ft 282 kts 341°
2026-04-20 06:07 -34.41495 138.33963 20252 ft 282 kts 341°
2026-04-20 06:07 -34.39620 138.33269 20252 ft 282 kts 342°
2026-04-20 06:07 -34.37741 138.32586 20251 ft 282 kts 342°
2026-04-20 06:07 -34.36202 138.32037 20253 ft 282 kts 342°
2026-04-20 06:08 -34.34451 138.31420 20251 ft 283 kts 343°
2026-04-20 06:08 -34.32557 138.30761 20249 ft 283 kts 341°
2026-04-20 06:08 -34.30662 138.30102 20248 ft 283 kts 343°
2026-04-20 06:08 -34.28769 138.29448 20245 ft 283 kts 343°
2026-04-20 06:09 -34.26869 138.28792 20249 ft 284 kts 342°
2026-04-20 06:09 -34.24973 138.28137 20248 ft 284 kts 343°
2026-04-20 06:09 -34.23074 138.27479 20249 ft 284 kts 342°
2026-04-20 06:09 -34.21170 138.26822 20249 ft 284 kts 343°
2026-04-20 06:10 -34.19288 138.26172 20249 ft 284 kts 343°
2026-04-20 06:10 -34.17367 138.25507 20249 ft 284 kts 342°
2026-04-20 06:10 -34.15469 138.24850 20249 ft 284 kts 342°
2026-04-20 06:10 -34.13607 138.24062 20247 ft 283 kts 336°
2026-04-20 06:11 -34.11834 138.23038 20244 ft 282 kts 330°
2026-04-20 06:11 -34.10077 138.21983 20242 ft 282 kts 334°
2026-04-20 06:11 -34.08283 138.21026 20243 ft 282 kts 335°
2026-04-20 06:11 -34.06470 138.20109 20244 ft 282 kts 336°
2026-04-20 06:12 -34.04654 138.19204 20242 ft 282 kts 336°
2026-04-20 06:12 -34.02863 138.18306 20241 ft 283 kts 336°
2026-04-20 06:12 -34.01050 138.17387 20242 ft 283 kts 336°
2026-04-20 06:12 -33.99688 138.16692 20241 ft 283 kts 335°
2026-04-20 06:13 -33.97876 138.15761 20240 ft 283 kts 336°
2026-04-20 06:13 -33.96065 138.14828 20240 ft 283 kts 335°
2026-04-20 06:13 -33.94252 138.13889 20237 ft 284 kts 335°
2026-04-20 06:13 -33.92440 138.12948 20238 ft 284 kts 335°
2026-04-20 06:14 -33.90626 138.12005 20240 ft 284 kts 335°
2026-04-20 06:14 -33.88811 138.11061 20238 ft 284 kts 336°
2026-04-20 06:14 -33.87000 138.10121 20237 ft 284 kts 335°
2026-04-20 06:14 -33.85188 138.09182 20235 ft 284 kts 335°
2026-04-20 06:15 -33.83376 138.08243 20238 ft 284 kts 335°
2026-04-20 06:15 -33.81563 138.07303 20238 ft 284 kts 335°
2026-04-20 06:15 -33.79753 138.06364 20238 ft 283 kts 336°
2026-04-20 06:15 -33.77942 138.05424 20238 ft 283 kts 336°
2026-04-20 06:16 -33.76133 138.04487 20236 ft 283 kts 336°
2026-04-20 06:16 -33.74319 138.03548 20233 ft 283 kts 336°
2026-04-20 06:16 -33.72508 138.02611 20233 ft 283 kts 336°
2026-04-20 06:16 -33.70699 138.01676 20233 ft 283 kts 336°
2026-04-20 06:17 -33.68888 138.00740 20231 ft 283 kts 336°
2026-04-20 06:17 -33.67083 137.99808 20232 ft 283 kts 336°
2026-04-20 06:17 -33.65269 137.98872 20148 ft 286 kts 336°
2026-04-20 06:17 -33.63416 137.97915 19911 ft 292 kts 336°
2026-04-20 06:18 -33.61703 137.97033 19697 ft 290 kts 336°
2026-04-20 06:18 -33.59851 137.96080 19462 ft 289 kts 336°
2026-04-20 06:18 -33.58006 137.95130 19230 ft 288 kts 336°
2026-04-20 06:18 -33.56168 137.94183 18999 ft 287 kts 336°
2026-04-20 06:19 -33.54335 137.93239 18700 ft 288 kts 336°
2026-04-20 06:19 -33.52487 137.92289 18360 ft 290 kts 336°
2026-04-20 06:19 -33.50637 137.91337 17993 ft 290 kts 336°
2026-04-20 06:19 -33.48789 137.90386 17629 ft 287 kts 336°
2026-04-20 06:20 -33.46966 137.89450 17270 ft 284 kts 336°
2026-04-20 06:20 -33.45155 137.88519 16896 ft 283 kts 336°
2026-04-20 06:20 -33.43348 137.87592 16521 ft 282 kts 337°
2026-04-20 06:20 -33.41553 137.86671 16150 ft 280 kts 337°
2026-04-20 06:21 -33.39763 137.85753 15784 ft 279 kts 337°
2026-04-20 06:21 -33.37980 137.84839 15423 ft 278 kts 337°
2026-04-20 06:21 -33.36200 137.83926 15065 ft 277 kts 337°
2026-04-20 06:21 -33.34431 137.83020 14712 ft 276 kts 337°
2026-04-20 06:22 -33.32665 137.82116 14363 ft 276 kts 337°
2026-04-20 06:22 -33.30905 137.81215 14013 ft 275 kts 337°
2026-04-20 06:22 -33.29152 137.80318 13623 ft 274 kts 337°
2026-04-20 06:22 -33.27403 137.79424 13237 ft 272 kts 337°
2026-04-20 06:23 -33.25652 137.78528 12720 ft 274 kts 336°
2026-04-20 06:23 -33.23896 137.77632 12256 ft 273 kts 336°
2026-04-20 06:23 -33.22161 137.76746 11861 ft 270 kts 336°
2026-04-20 06:23 -33.20443 137.75869 11471 ft 267 kts 336°
2026-04-20 06:24 -33.18742 137.75001 11080 ft 264 kts 336°
2026-04-20 06:24 -33.17060 137.74142 10703 ft 262 kts 336°
2026-04-20 06:24 -33.15394 137.73293 10326 ft 260 kts 335°
2026-04-20 06:24 -33.13736 137.72447 9939 ft 259 kts 336°
2026-04-20 06:25 -33.12082 137.71604 9520 ft 258 kts 336°
2026-04-20 06:25 -33.10434 137.70764 9108 ft 257 kts 335°
2026-04-20 06:25 -33.08789 137.69926 8708 ft 257 kts 335°
2026-04-20 06:25 -33.07174 137.69104 8313 ft 254 kts 335°
2026-04-20 06:26 -33.05561 137.68285 7912 ft 250 kts 335°
2026-04-20 06:26 -33.03972 137.67478 7519 ft 248 kts 335°
2026-04-20 06:26 -33.02392 137.66675 7135 ft 246 kts 335°
2026-04-20 06:26 -33.00831 137.65882 6756 ft 244 kts 334°
2026-04-20 06:27 -32.99767 137.65342 6469 ft 244 kts 334°
2026-04-20 06:27 -32.98201 137.64547 5737 ft 251 kts 334°
2026-04-20 06:27 -32.96603 137.63738 5222 ft 246 kts 335°
2026-04-20 06:27 -32.95066 137.62963 4723 ft 234 kts 334°
2026-04-20 06:28 -32.93611 137.62230 4411 ft 219 kts 334°
2026-04-20 06:28 -32.92255 137.61545 4165 ft 205 kts 334°
2026-04-20 06:28 -32.90990 137.60905 3918 ft 189 kts 334°
2026-04-20 06:28 -32.89819 137.60314 3673 ft 184 kts 334°
2026-04-20 06:29 -32.88614 137.59693 3430 ft 192 kts 333°
2026-04-20 06:29 -32.87949 137.58457 3002 ft 207 kts 264°
2026-04-20 06:29 -32.88688 137.56918 2652 ft 218 kts 236°
2026-04-20 06:29 -32.89649 137.55531 2720 ft 219 kts 229°
2026-04-20 06:30 -32.90767 137.54216 2538 ft 228 kts 222°
2026-04-20 06:30 -32.92004 137.53065 2593 ft 223 kts 216°
2026-04-20 06:30 -32.93272 137.52064 2718 ft 217 kts 214°
2026-04-20 06:30 -32.94574 137.51108 2611 ft 229 kts 213°
2026-04-20 06:31 -32.96052 137.50371 2293 ft 228 kts 188°
2026-04-20 06:31 -32.97552 137.50437 2095 ft 210 kts 163°
2026-04-20 06:31 -32.98853 137.50940 1739 ft 176 kts 162°
2026-04-20 06:31 -32.99793 137.51287 1609 ft 112 kts 164°
2026-04-20 06:32 -33.00510 137.51415 1365 ft 98 kts 173°
2026-04-20 06:32 -33.01178 137.51435 1125 ft 96 kts 172°
2026-04-20 06:32 -33.01832 137.51552 944 ft 97 kts 163°
2026-04-20 06:32 -33.02494 137.51609 741 ft 95 kts 173°
2026-04-20 06:33 -33.03152 137.51661 599 ft 100 kts 172°
2026-04-20 06:33 -33.03855 137.51716 396 ft 101 kts 168°
2026-04-20 06:33 -33.04524 137.51779 246 ft 94 kts 169°
2026-04-20 06:33 -33.05171 137.51858 87 ft 92 kts 172°
2026-04-20 06:34 -33.05715 137.51935 40 ft 66 kts 158°
2026-04-20 06:34 -33.05838 137.51938 40 ft 15 kts
2026-04-20 06:34 -33.05525 137.51910 37 ft 29 kts
2026-04-20 06:35 -33.05457 137.52024 38 ft 18 kts 81°
2026-04-20 06:35 -33.05433 137.52091 38 ft 4 kts 226°
2026-04-20 06:35 -33.05433 137.52090 38 ft 0 kts 226°